STARLINK-32731 (62493 NORAD) Tracking and Keplerian Element Data

This shows tracking and keplerian element data for the satellite.

Feedback or suggestion? Click here.




ElementValue
Catalog62493
NameSTARLINK-32731
Epoch Orbit550
Epoch Day34.05022641
Epoch Year2025
RAAN30.102
Inclination43.0007
Eccentricity0.0002126
Argument of Perigee268.5969
Mean Anonmoly91.4648
Mean Motion15.50575713
Decay Rate-1.49E-05
L11 62493U 25003G 25034.05022641 -.00001490 00000+0 -19574-4 0 9993
L22 62493 43.0007 30.1020 0002126 268.5969 91.4648 15.50575713 5503



Live tracking and technical data element details for STARLINK-32731 (NORAD 62493). STARLINK-32731 can be tracked NOW for your location showing map with azimuth and elevation plus other details from your city location.







IsCatalogInMostPopularTable: catalog: 62493, numindb: 18
Update: records affected: 1



GetName: 62493 STARLINK-32731

Hit Count: updated at: Mon, 19 May 2025 01:59:49 GMT